Regional Weather Roundup
Issued by NWS

Home | Current Version | Previous Version | Text Only | Print | Product List | Glossary Off
Versions: 1 2 3 4 5 6 7 8 9 10 11 12 13 14 15 16 17 18 19 20 21 22 23 24 25 26 27 28

000
ASUS45 KCYS 291310
RWRWY

WYOMING REGIONAL WEATHER ROUNDUP
NATIONAL WEATHER SERVICE CHEYENNE WY
700 AM MDT WED OCT 29 2014

NOTE:  "FAIR" INDICATES FEW OR NO CLOUDS BELOW 12,000 FEET
WITH NO SIGNIFICANT WEATHER AND/OR OBSTRUCTIONS TO VISIBILITY.

WYZ001-291400-
YELLOWSTONE NATIONAL PARK

CITY           SKY/WX    TMP DP  RH WIND       PRES   REMARKS
LK YELLOWSTONE   N/A     24  22  91 CALM      30.25
W YELLOWSTONE  NOT AVBL

$$
WYZ002>013-054>058-071-098>099-291400-
NORTHERN WYOMING

CITY           SKY/WX    TMP DP  RH WIND       PRES   REMARKS
JACKSON        CLOUDY    25  23  93 N3        30.25S
CODY           PTCLDY    48  19  32 W13       30.07
GREYBULL       MOCLDY    28  14  55 N3        30.10R
WORLAND        PTCLDY    22  13  68 VRB3      30.09R
SHERIDAN       CLOUDY    32  23  69 CALM      29.99R
BUFFALO        PTCLDY    39  20  46 N3        30.01F
GILLETTE       CLEAR     43  16  33 MISG      30.01F
HULETT         FAIR      39  18  41 SW6       30.03S WCI  35
NEWCASTLE      FAIR      27  19  74 CALM      30.09

$$
WYZ014>020-022>026-101>103-291400-
CENTRAL WYOMING

CITY           SKY/WX    TMP DP  RH WIND       PRES   REMARKS
BIG PINEY      CLEAR     15  10  80 NE3       30.29R
PINEDALE       MOSUNNY   18  14  86 W6        30.29R WCI   9
DUBOIS         FAIR      30  18  59 NW17      30.18S WCI  18
LANDER         PTCLDY    28  13  53 CALM      30.12S
RIVERTON       PTCLDY    30  13  49 SW6       30.13S WCI  24
CASPER         CLEAR     41  12  30 SW14G25   30.11F
DOUGLAS        CLEAR     19  13  77 CALM      30.10F

$$
WYZ021-027>030-104>119-291400-
SOUTHERN WYOMING

CITY           SKY/WX    TMP DP  RH WIND       PRES   REMARKS
EVANSTON       PTCLDY    32   7  35 S6        30.29F WCI  26
FORT BRIDGER   FAIR      34   9  34 W9        30.31S WCI  27
ROCK SPRINGS   PTCLDY    31   9  39 SW12      30.28R WCI  22
DIXON          FAIR      20  14  75 CALM      30.34R
RAWLINS        PTCLDY    36   6  28 W17       30.24S WCI  26
SARATOGA       FAIR      28  10  47 S9        30.28R WCI  20
LARAMIE        CLEAR     36   9  32 SW18      30.22R WCI  26
CHEYENNE       PTCLDY    43  12  28 SW21      30.16S
TORRINGTON     PTCLDY    20  15  81 CALM      30.10F
PINE BLUFFS    FAIR      28  21  74 S6        30.16S WCI  22

$$



USA.gov is the U.S. government's official web portal to all federal, state and local government web resources and services.